FENGYUN 1C DEB, 30095

Orbit data source: Space-Track

FENGYUN 1C DEB, 30095 is space debris in SSO originally from a launch on Mon, 10 May 1999 UTC launched from the Taiyaun Space Center, China (TSC). Fengyun 1C debris stems from the Chinese weather satellite Fengyun-1C, which was intentionally destroyed by a Chinese anti-satellite missile in 2007. This event dramatically increased the amount of space debris, with thousands of trackable fragments posing hazards to satellites and human spaceflight. The Fengyun 1C debris cloud has become a focal point in discussions about space sustainability and the need for international regulations to prevent the creation of new debris.

Loading next visibility...
Identifier
30095, 1999-025QY
Orbit
SSO
Country
Flag of CNCN / PRC
Related business
Manufacturer
Unknown
Mission
Spacecraft
Bus & Motor
Unknown
Mass
Unknown
Launch date (UTC)
1999-05-10 (27 years ago)
Launch vehicle
Unknown
Launch site
Taiyaun Space Center, China (TSC)
Object type
Payload
Rocket body
Debris
Shape & HBR
Unknown shape, 0.1 m
Radar Cross Section
Medium (>0.1 m² and <1 m²)

Expand to show TLE details & history
Last TLE update: 17 hours ago

TLE from 17 hours ago
0 FENGYUN 1C DEB
1 30095U 99025QY  26175.11919075  .00015248  00000-0  13352-2 0  9992
2 30095  99.2304 131.8551 0150745  82.2599 279.5700 14.88411894 22054
Epoch: 2026-06-24T02:51Z
TLE epoch observation values (Epoch: 2026-06-24T02:51:38.080Z)
Latitude
-0.00004°
Longitude
176.66546°
Altitude
589.937 km
Speed
7.574 km/s
True Right ascension
08h 47m 25s
True Declination
0° 00' 00"
Sunlit
Object was in daylight at epoch
Visualization orbit readout
Latitude
Unknown
Longitude
Unknown
Altitude
Unknown
Speed
Unknown
Apparent Right ascension
Unknown
Apparent Declination
Unknown
Sunlit
N/A
Visualization observer readout
Local Sidereal Time
06:48:03
Azimuth
Unknown
Elevation
Unknown
Doppler factor
Unknown
Orbital elements
Apogee altitude
705.182 km
Perigee altitude
494.799 km
Semi-major axis
6,978.127 km
Eccentricity
0.01507
Inclination
99.2304°
RAAN
131.8551°
Arg. of periapsis
82.2599°
True anomaly
277.86153°
Mean anomaly
279.57°
Eccentric anomaly
278.71627°
Mean motion
3.72336 °/min
Orbital period
96.69 mins
BSTAR
0.0013352
Loading maneuver chart data...
Computing Atmospheric mass density...

Documentation

Showing up to 5 results
|